YZ-1 R/B, 43625

Orbit data source: Space-Track

YZ-1 R/B, 43625 is space debris originally from a launch on Wed, 19 Sep 2018 UTC launched from the Xichang Space Center, China (XSC). Debris objects in space refer to the collection of defunct objects orbiting the Earth. Examples of debris include non-operational satellites, rocket bodies, and fragments generated from explosions, collisions, or faulty payload assembly.

Loading next visibility...
Identifier
43625, 2018-072D
Orbit
Active
Country
Flag of CNCN / PRC
Related business
Manufacturer
CALT
Mission
Spacecraft
Bus & Motor
YZ-1, Unknown motor
Mass
~2,075 kg wet, ~2,075 kg dry
Launch date (UTC)
2018-09-19 (8 years ago)
Launch vehicle
Unknown
Launch site
Xichang Space Center, China (XSC)
Object type
Payload
Rocket body
Debris
Shape & HBR
Double Cone, 2.0 m
Radar Cross Section
5.890 m², Large (>1 m²)

Expand to show TLE details & history
Last TLE update: 3 days ago

TLE from 3 days ago
0 YZ-1 R/B
1 43625U 18072D   26170.28117898 -.00000052  00000-0  00000-0 0  9996
2 43625  56.4276  71.6560 0108691  65.8693 295.2928  1.77481495 50221
Epoch: 2026-06-19T06:44Z
TLE epoch observation values (Epoch: 2026-06-19T06:44:53.863Z)
Latitude
0.00003°
Longitude
62.93432°
Altitude
22,306.575 km
Speed
3.736 km/s
True Right ascension
04h 46m 41s
True Declination
0° 00' 00"
Sunlit
Object was in daylight at epoch
Visualization orbit readout
Latitude
Unknown
Longitude
Unknown
Altitude
Unknown
Speed
Unknown
Apparent Right ascension
Unknown
Apparent Declination
Unknown
Sunlit
N/A
Visualization observer readout
Local Sidereal Time
21:42:39
Azimuth
Unknown
Elevation
Unknown
Doppler factor
Unknown
Orbital elements
Apogee altitude
22,750.983 km
Perigee altitude
22,124.576 km
Semi-major axis
28,815.917 km
Eccentricity
0.01087
Inclination
56.4276°
RAAN
71.656°
Arg. of periapsis
65.8693°
True anomaly
294.16019°
Mean anomaly
295.2928°
Eccentric anomaly
294.72715°
Mean motion
0.44371 °/min
Orbital period
811.35 mins
BSTAR
0
Loading maneuver chart data...
Computing Atmospheric mass density...
Loading historical data...
Loading historical data...
Loading historical data...
Loading historical data...
Loading historical data...
Loading historical data...
Loading historical data...
Other satellites on launch #72 in the year 2018 (2018-09-19 UTC)

Documentation

Showing up to 5 results
|